| time (UTC) | temp F | wind direction | speed knots | gust knots | rain 1hr in | rain 24hr in | rain mn in | humidity % | barometer mb |
| 20260510183023 | 66 | 222 | 4.3 | 13.0 | 0.00 | 0.00 | 0.00 | 34 | 1021.7 |
| 20260510181521 | 65 | 198 | 7.0 | 12.2 | 0.00 | 0.00 | 0.00 | 38 | 1021.9 |
| 20260510180024 | 66 | 181 | 9.6 | 13.0 | 0.00 | 0.00 | 0.00 | 41 | 1022.1 |
| 20260510174517 | 65 | 170 | 7.8 | 14.8 | 0.00 | 0.00 | 0.00 | 40 | 1022.1 |
| 20260510173015 | 64 | 198 | 9.6 | 15.6 | 0.00 | 0.00 | 0.00 | 44 | 1022.1 |
| 20260510171512 | 63 | 179 | 7.8 | 13.0 | 0.00 | 0.00 | 0.00 | 48 | 1022.2 |
| 20260510170011 | 63 | 147 | 9.6 | 13.9 | 0.00 | 0.00 | 0.00 | 47 | 1022.4 |
| 20260510164521 | 62 | 163 | 7.8 | 13.0 | 0.00 | 0.00 | 0.00 | 48 | 1022.4 |
| 20260510163007 | 62 | 203 | 7.0 | 13.0 | 0.00 | 0.00 | 0.00 | 46 | 1022.8 |
| 20260510161505 | 61 | 174 | 7.0 | 10.4 | 0.00 | 0.00 | 0.00 | 45 | 1022.7 |
| 20260510160003 | 61 | 174 | 7.0 | 9.6 | 0.00 | 0.00 | 0.00 | 47 | 1022.4 |
| 20260510154502 | 60 | 193 | 5.2 | 9.6 | 0.00 | 0.00 | 0.00 | 43 | 1022.4 |
| 20260510153103 | 60 | 157 | 7.0 | 9.6 | 0.00 | 0.00 | 0.00 | 44 | 1022.3 |
| 20260510151558 | 61 | 137 | 6.1 | 9.6 | 0.00 | 0.00 | 0.00 | 40 | 1022.0 |
| 20260510150120 | 60 | 172 | 6.1 | 9.6 | 0.00 | 0.00 | 0.00 | 42 | 1021.9 |
| 20260510144553 | 59 | 153 | 5.2 | 7.8 | 0.00 | 0.00 | 0.00 | 47 | 1021.7 |
| 20260510143053 | 59 | 139 | 4.3 | 7.0 | 0.00 | 0.00 | 0.00 | 46 | 1021.9 |
| 20260510141548 | 58 | 169 | 3.5 | 7.0 | 0.00 | 0.00 | 0.00 | 48 | 1021.8 |
| 20260510140045 | 57 | 211 | 1.7 | 3.5 | 0.00 | 0.00 | 0.00 | 48 | 1021.8 |
| 20260510134542 | 56 | 258 | 1.7 | 4.3 | 0.00 | 0.00 | 0.00 | 60 | 1021.7 |
| 20260510133041 | 53 | 263 | 1.7 | 4.3 | 0.00 | 0.00 | 0.00 | 65 | 1021.7 |
| 20260510131536 | 53 | 255 | 1.7 | 3.5 | 0.00 | 0.00 | 0.00 | 63 | 1021.4 |
| 20260510130035 | 51 | 249 | 0.9 | 3.5 | 0.00 | 0.00 | 0.00 | 68 | 1021.1 |
| 20260510124533 | 50 | 226 | 1.7 | 4.3 | 0.00 | 0.00 | 0.00 | 71 | 1021.2 |
| 20260510123031 | 49 | 264 | 2.6 | 4.3 | 0.00 | 0.00 | 0.00 | 70 | 1020.8 |
| 20260510121530 | 49 | 251 | 1.7 | 3.5 | 0.00 | 0.00 | 0.00 | 71 | 1020.6 |
| 20260510120030 | 48 | 250 | 1.7 | 4.3 | 0.00 | 0.00 | 0.00 | 71 | 1020.7 |
| 20260510114528 | 49 | 254 | 3.5 | 5.2 | 0.00 | 0.00 | 0.00 | 68 | 1020.3 |
| 20260510113025 | 49 | 255 | 0.9 | 4.3 | 0.00 | 0.00 | 0.00 | 66 | 1019.9 |
| 20260510111525 | 48 | 266 | 0.9 | 2.6 | 0.00 | 0.00 | 0.00 | 71 | 1019.9 |
| 20260510110022 | 48 | 281 | 0.9 | 1.7 | 0.00 | 0.00 | 0.00 | 74 | 1019.8 |
| 20260510104520 | 49 | 281 | 0.0 | 0.9 | 0.00 | 0.00 | 0.00 | 71 | 1019.7 |
| 20260510103020 | 50 | 274 | 0.0 | 1.7 | 0.00 | 0.00 | 0.00 | 66 | 1019.7 |
| 20260510101519 | 49 | 223 | 0.0 | 0.0 | 0.00 | 0.00 | 0.00 | 69 | 1019.9 |
| 20260510100018 | 50 | 276 | 0.0 | 0.0 | 0.00 | 0.00 | 0.00 | 66 | 1019.7 |
| 20260510094533 | 50 | 314 | 0.0 | 0.0 | 0.00 | 0.00 | 0.00 | 68 | 1019.5 |
| 20260510093014 | 50 | 259 | 0.0 | 0.0 | 0.00 | 0.00 | 0.00 | 67 | 1019.3 |
| 20260510091512 | 50 | 266 | 0.0 | 1.7 | 0.00 | 0.00 | 0.00 | 69 | 1019.3 |
| 20260510090012 | 49 | 271 | 0.0 | 1.7 | 0.00 | 0.00 | 0.00 | 69 | 1019.1 |
| 20260510084518 | 49 | 278 | 0.9 | 1.7 | 0.00 | 0.00 | 0.00 | 70 | 1019.1 |
| 20260510083009 | 49 | 280 | 0.9 | 1.7 | 0.00 | 0.00 | 0.00 | 72 | 1019.0 |
| 20260510081508 | 49 | 287 | 0.9 | 2.6 | 0.00 | 0.00 | 0.00 | 72 | 1019.0 |
| 20260510080016 | 48 | 287 | 0.9 | 2.6 | 0.00 | 0.00 | 0.00 | 72 | 1018.8 |
| 20260510074506 | 49 | 304 | 0.9 | 2.6 | 0.00 | 0.00 | 0.00 | 71 | 1018.8 |
| 20260510073009 | 49 | 304 | 0.9 | 1.7 | 0.00 | 0.00 | 0.00 | 69 | 1018.7 |
| 20260510071600 | 50 | 315 | 0.9 | 1.7 | 0.00 | 0.00 | 0.00 | 67 | 1018.6 |
| 20260510070058 | 51 | 323 | 0.9 | 2.6 | 0.00 | 0.00 | 0.00 | 67 | 1018.6 |
| 20260510064600 | 51 | 295 | 2.6 | 5.2 | 0.00 | 0.00 | 0.00 | 70 | 1018.1 |
| 20260510063050 | 53 | 308 | 1.7 | 3.5 | 0.00 | 0.00 | 0.00 | 66 | 1017.7 |
| 20260510061547 | 55 | 20 | 0.9 | 1.7 | 0.00 | 0.00 | 0.00 | 65 | 1017.1 |
| 20260510060047 | 55 | 59 | 2.6 | 7.0 | 0.00 | 0.00 | 0.00 | 63 | 1016.7 |
| 20260510054545 | 54 | 75 | 3.5 | 7.0 | 0.00 | 0.00 | 0.00 | 68 | 1016.7 |
| 20260510053042 | 55 | 60 | 0.0 | 0.9 | 0.00 | 0.00 | 0.00 | 65 | 1017.4 |
| 20260510051540 | 55 | 313 | 1.7 | 5.2 | 0.00 | 0.00 | 0.00 | 67 | 1017.9 |
| 20260510050038 | 55 | 316 | 0.9 | 2.6 | 0.00 | 0.00 | 0.00 | 69 | 1017.3 |
| 20260510044536 | 56 | 330 | 0.9 | 3.5 | 0.00 | 0.00 | 0.00 | 66 | 1017.2 |
| 20260510043036 | 57 | 287 | 3.5 | 5.2 | 0.00 | 0.00 | 0.00 | 63 | 1017.8 |
| 20260510041535 | 57 | 305 | 3.5 | 5.2 | 0.00 | 0.00 | 0.00 | 59 | 1017.2 |
| 20260510040030 | 58 | 325 | 3.5 | 6.1 | 0.00 | 0.00 | 0.00 | 59 | 1016.6 |
| 20260510034527 | 58 | 339 | 4.3 | 7.8 | 0.00 | 0.00 | 0.00 | 57 | 1016.3 |
| 20260510033026 | 59 | 350 | 4.3 | 7.0 | 0.00 | 0.00 | 0.00 | 56 | 1015.9 |
| 20260510031524 | 59 | 350 | 5.2 | 9.6 | 0.00 | 0.00 | 0.00 | 55 | 1015.5 |
| 20260510030023 | 59 | 328 | 7.8 | 11.3 | 0.00 | 0.00 | 0.00 | 53 | 1014.9 |
| 20260510024518 | 60 | 340 | 7.0 | 13.9 | 0.00 | 0.00 | 0.00 | 52 | 1014.2 |
| 20260510023016 | 60 | 8 | 10.4 | 17.4 | 0.00 | 0.00 | 0.00 | 51 | 1013.1 |
| 20260510021514 | 61 | 7 | 10.4 | 16.5 | 0.00 | 0.00 | 0.00 | 50 | 1012.6 |
| 20260510020011 | 62 | 350 | 14.8 | 21.7 | 0.00 | 0.00 | 0.00 | 49 | 1012.0 |
| 20260510014511 | 63 | 330 | 13.0 | 19.1 | 0.00 | 0.00 | 0.00 | 46 | 1011.8 |
| 20260510013008 | 65 | 325 | 15.6 | 20.9 | 0.00 | 0.00 | 0.00 | 43 | 1011.0 |
| 20260510011508 | 67 | 343 | 13.0 | 19.1 | 0.00 | 0.00 | 0.00 | 38 | 1010.6 |
| 20260510010005 | 68 | 12 | 13.9 | 21.7 | 0.00 | 0.00 | 0.00 | 36 | 1010.2 |
| 20260510004600 | 70 | 10 | 13.9 | 24.3 | 0.00 | 0.00 | 0.00 | 34 | 1009.7 |
| 20260510003101 | 71 | 13 | 17.4 | 24.3 | 0.00 | 0.00 | 0.00 | 31 | 1009.2 |
| 20260510001559 | 73 | 20 | 15.6 | 21.7 | 0.00 | 0.00 | 0.00 | 29 | 1009.2 |
| 20260510000058 | 73 | 29 | 15.6 | 21.7 | 0.00 | 0.00 | 0.00 | 29 | 1009.2 |
| 20260509234557 | 72 | 34 | 15.6 | 20.0 | 0.00 | 0.00 | 0.00 | 30 | 1009.1 |
| 20260509233056 | 73 | 5 | 15.6 | 22.6 | 0.00 | 0.00 | 0.00 | 29 | 1008.9 |
| 20260509231558 | 74 | 20 | 13.0 | 19.1 | 0.00 | 0.00 | 0.00 | 28 | 1008.8 |
| 20260509230059 | 76 | 359 | 13.0 | 21.7 | 0.00 | 0.00 | 0.00 | 27 | 1008.5 |
| 20260509224559 | 76 | 6 | 13.0 | 21.7 | 0.00 | 0.00 | 0.00 | 28 | 1008.3 |
| 20260509223054 | 77 | 352 | 13.9 | 20.9 | 0.00 | 0.00 | 0.00 | 27 | 1008.0 |
| 20260509221552 | 78 | 8 | 17.4 | 24.3 | 0.00 | 0.00 | 0.00 | 27 | 1007.9 |
| 20260509220055 | 79 | 335 | 13.9 | 20.0 | 0.00 | 0.00 | 0.00 | 28 | 1007.7 |
| 20260509214558 | 80 | 20 | 13.9 | 20.9 | 0.00 | 0.00 | 0.00 | 28 | 1007.6 |
| 20260509213113 | 79 | 317 | 7.0 | 14.8 | 0.00 | 0.00 | 0.00 | 28 | 1007.6 |
| 20260509211553 | 79 | 327 | 7.8 | 14.8 | 0.00 | 0.00 | 0.00 | 30 | 1007.6 |
| 20260509204548 | 79 | 322 | 11.3 | 16.5 | 0.00 | 0.00 | 0.00 | 29 | 1007.7 |
| 20260509203048 | 79 | 329 | 9.6 | 15.6 | 0.00 | 0.00 | 0.00 | 29 | 1007.7 |
| 20260509201547 | 78 | 326 | 12.2 | 19.1 | 0.00 | 0.00 | 0.00 | 30 | 1007.6 |
| 20260509200047 | 79 | 323 | 13.9 | 20.0 | 0.00 | 0.00 | 0.00 | 30 | 1007.3 |
| 20260509194547 | 78 | 14 | 13.0 | 19.1 | 0.00 | 0.00 | 0.00 | 28 | 1007.5 |
| 20260509193045 | 79 | 8 | 13.9 | 19.1 | 0.00 | 0.00 | 0.00 | 29 | 1007.3 |
| 20260509191544 | 78 | 41 | 10.4 | 14.8 | 0.00 | 0.00 | 0.00 | 30 | 1007.3 |
| 20260509190043 | 77 | 43 | 7.8 | 16.5 | 0.00 | 0.00 | 0.00 | 32 | 1007.3 |
| 20260509184551 | 77 | 349 | 7.8 | 16.5 | 0.00 | 0.00 | 0.00 | 33 | 1007.2 |